Regional Weather Roundup
Issued by NWS

Home | Current Version | Previous Version | Text Only | Print | Product List | Glossary Off
Versions: 1 2 3 4 5 6 7 8 9 10 11 12 13 14 15 16 17 18 19 20 21 22 23 24 25 26 27 28 29 30 31 32 33 34 35 36 37 38 39 40 41 42 43 44 45 46 47 48 49 50

000
ASUS43 KFSD 221302
RWRSD

WEATHER ROUNDUP FOR SOUTH DAKOTA
NATIONAL WEATHER SERVICE SIOUX FALLS SD
800 AM CDT SAT JUL 22 2017

NOTE: "FAIR" INDICATES FEW OR NO CLOUDS BELOW 12,000 FEET WITH NO
SIGNIFICANT WEATHER AND/OR OBSTRUCTIONS TO VISIBILITY.


SDZ001>005-009-010-012>017-221400-
NORTHWEST AND NORTH CENTRAL SOUTH DAKOTA

CITY           SKY/WX    TMP DP  RH WIND       PRES   REMARKS
BUFFALO          N/A     58  46  64 W7        29.99R
FAITH            N/A     65  48  54 NW8       30.00S
MOBRIDGE         N/A     69  65  86 W6        29.92R
$$

SDZ012>016-024>037-041>051-057-063-072>074-221400-
SOUTHWEST AND SOUTH CENTRAL SOUTH DAKOTA

CITY           SKY/WX    TMP DP  RH WIND       PRES   REMARKS
RAPID CTY ARPT LGT RAIN  66  46  48 NE7       30.06R
PIERRE         MOSUNNY   70  64  81 NW14      29.91R
CUSTER         CLOUDY    63  40  42 VRB7      30.19S
ELLSWORTH AFB  LGT RAIN  67  50  54 W8        30.05
PHILIP         CLOUDY    68  47  46 W5        29.98R
PINE RIDGE     SUNNY     65  61  87 CALM      30.04R
SPEARFISH      FAIR      64  43  45 CALM      30.11R
WINNER         FAIR      74  67  78 SW3       29.92R
$$

SDZ004>011-016>023-039-040-221400-
NORTHEAST SOUTH DAKOTA

CITY           SKY/WX    TMP DP  RH WIND       PRES   REMARKS
ABERDEEN       PTSUNNY   68  67  96 CALM      29.89R FOG
WATERTOWN      CLOUDY    70  69  97 N3        29.90S
BROOKINGS      MOSUNNY   69  65  86 N10       29.92R
SISSETON         N/A     69  67  93 SE3       29.87R
$$

SDZ017-020-022-023-036>040-048>070-221400-
SOUTHEAST SOUTH DAKOTA

CITY           SKY/WX    TMP DP  RH WIND       PRES   REMARKS
SIOUX FALLS    MOSUNNY   73  69  87 CALM      29.87R
HURON          MOSUNNY   68  68 100 NW8       29.89R
CHAMBERLAIN    CLOUDY    74  72  91 NW7       29.91R
MITCHELL       CLOUDY    70  68  93 N3        29.89R
YANKTON        SUNNY     73  70  90 N8        29.86R
$$

ABBREVIATIONS USED IN REMARKS
   TC - TEMPERATURE IN CELSIUS
  WCI - WIND CHILL INDEX
   HX - HEAT INDEX
  VSB - VISIBILITY




USA.gov is the U.S. government's official web portal to all federal, state and local government web resources and services.